Regional Weather Roundup
Issued by NWS

Home | Current Version | Previous Version | Text Only | Print | Product List | Glossary On
Versions: 1 2 3 4 5 6 7 8 9 10 11 12 13 14 15 16 17 18 19 20 21 22 23 24 25 26 27 28 29 30 31 32 33 34 35 36 37 38 39 40 41 42 43 44 45 46 47 48 49 50
000
ASUS43 KIND 270909
RWRIN

WEATHER ROUNDUP FOR INDIANA
NATIONAL WEATHER SERVICE INDIANAPOLIS IN
500 AM EDT FRI APR 27 2018

NOTE: "FAIR" INDICATES FEW OR NO CLOUDS BELOW 12,000 FEET WITH NO
SIGNIFICANT WEATHER AND/OR OBSTRUCTIONS TO VISIBILITY.

* - STATION DOES NOT REPORT WEATHER SUCH AS PRECIPITATION OR FOG.

+ - STATION NOT QUALITY CONTROLLED BY THE NATIONAL WEATHER SERVICE.
    USE DATA WITH CAUTION...ESPECIALLY DEWPOINT AND RELATIVE
    HUMIDITY OBSERVATIONS.

INZ001>003-010>013-019-020-271000-
NORTHWEST INDIANA

CITY           SKY/WX    TMP DP  RH WIND       PRES   REMARKS
GARY /AIRPORT/ MOCLDY    53  25  34 SW3       29.74S
KNOX *+        FAIR      43  32  65 S5        29.75F
LA PORTE +     FAIR      40  31  69 SW6       29.75F WCI  36
MICHIGAN CITY+ FAIR      50  28  43 S8        29.74F
MONTICELLO +   FAIR      47  32  56 S6        29.77S
RENSSELAER +   FAIR      43  27  52 S3        29.76F
VALPARAISO     FAIR      45  29  53 S5        29.74F

$$

LMZ046-743>745-271000-
SOUTHERN LAKE MICHIGAN

STATION/POSITION TIME  TEMP    WIND        PRES    WAVE
                       AIR SEA DIR/SP/G            HT
                 (UTC) (F)     (DEG/KT/KT) (MB)    (FT)
BURNS HARBOR     0840   51     180/ 11/ 16 1007.5F
MICHIGAN CITY    0840   52     160/ 16/ 20   N/A

$$

INZ004-005-014>016-021>024-271000-
NORTH CENTRAL INDIANA

CITY           SKY/WX    TMP DP  RH WIND       PRES   REMARKS
GOSHEN         FAIR      39  36  89 CALM      29.75F
LOGANSPORT +   FAIR      41  34  75 S5        29.78F
PERU/GRISSOM   FAIR      42  39  89 S6        29.76F
ROCHESTER +    FAIR      48  34  57 S3        29.77F
SOUTH BEND     FAIR      40  26  57 S3        29.75F
WARSAW +       FAIR      37  36  93 CALM      29.76F

$$

INZ006>009-017-018-025>027-271000-
NORTHEAST INDIANA

CITY           SKY/WX    TMP DP  RH WIND       PRES   REMARKS
AUBURN +       FAIR      39  36  87 CALM      29.77F
FORT WAYNE     MOCLDY    44  37  76 SW3       29.77F
HUNTINGTON +   FAIR      41  40  93 CALM      29.77F
KENDALLVILLE + FAIR      41  32  70 S5        29.76F

$$

INZ028-029-035-036-043>045-051>053-271000-
WEST CENTRAL INDIANA

CITY           SKY/WX    TMP DP  RH WIND       PRES   REMARKS
CRAWFORDSVL +  FAIR      38  34  85 S5        29.79F WCI  34
GREENCASTLE +  FAIR      37  34  87 CALM      29.81F
LAFAYETTE      FAIR      40  35  83 CALM      29.77F
TERRE HAUTE    FAIR      42  37  82 CALM      29.81F

$$

INZ030>032-037>040-046>048-054>057-064-065-271000-
CENTRAL INDIANA

CITY           SKY/WX    TMP DP  RH WIND       PRES   REMARKS
FISHERS *+     FAIR      41  39  93 CALM      29.80S
FRANKFORT +    FAIR      41  35  80 SW3       29.80F
GREENWOOD *+   FAIR      43  35  73 CALM      29.80F
INDIANAPOLIS   FAIR      44  35  70 SW6       29.80S
-EAGLE CREEK   FAIR      49  40  71 W3        29.79F
KOKOMO +       FAIR      44  36  73 S5        29.78F
MARION +       FAIR      39  35  84 CALM      29.79S
MT COMFORT *+  FAIR      41  41 100 CALM      29.80F
SHELBYVILLE    FAIR      44  37  76 CALM      29.79F
ZIONSVILLE +   FAIR      41  37  84 CALM      29.80S

$$

INZ033-034-041-042-049-050-058-059-271000-
EAST CENTRAL INDIANA

CITY           SKY/WX    TMP DP  RH WIND       PRES   REMARKS
MUNCIE         FAIR      45  37  73 CALM      29.78F
RICHMOND +     FAIR      41  37  87 CALM      29.79F

$$

INZ060-061-067>069-081>083-085>088-271000-
SOUTHWEST INDIANA

CITY           SKY/WX    TMP DP  RH WIND       PRES   REMARKS
EVANSVILLE     FAIR      47  42  83 W5        29.85S
HUNTINGBURG +  FAIR      44  38  79 S3        29.84S
WASHINGTON +   FAIR      45  35  68 CALM      29.83S

$$

INZ062-063-066-070>080-084-089>092-271000-
SOUTH CENTRAL AND SOUTHEAST INDIANA

CITY           SKY/WX    TMP DP  RH WIND       PRES   REMARKS
BATESVILLE +   CLEAR     41  41 100 MISG      29.80S
BEDFORD +      FAIR      46  30  53 W3        29.82S
BLOOMINGTON    FAIR      41  35  79 CALM      29.81F
FRENCH LICK *+ FAIR      46  28  49 CALM      29.84S
MADISON *+     FAIR      43  36  75 CALM      29.83S
NORTH VERNON + FAIR      39  36  87 CALM      29.81F
SEYMOUR +      FAIR      45  36  70 CALM      29.81S

$$





USA.gov is the U.S. government's official web portal to all federal, state and local government web resources and services.